This demonstration page uses our WeatherBlox Daily Observations layout. Learn more.

Left ArrowRight Arrow

39.51506, -84.39828

Hourly Observations for August 13, 2022

Temp ( °F °C ) Dew Point ( °F °C ) Humidity (%) Winds ( mph kmh ) Pressure ( in mb ) Visibility ( mi km ) Precip ( " mm )
12:15 am 00:15 Clear 58 14.7 58 14.6 99 99 N 5 7 30.19 1022 10 16 0.00 0.00
12:35 am 00:35 Clear 60 15.7 58 14.2 91 91 N 5 7 30.20 1023 10 16 0.00 0.00
12:55 am 00:55 Clear 60 15.7 58 14.5 93 93 NNE 3 6 30.18 1022 10 16 0.00 0.00
1:15 am 01:15 Clear 59 15.2 58 14.2 94 94 N 6 9 30.19 1022 10 16 0.00 0.00
1:35 am 01:35 Clear 59 14.9 58 14.2 96 96 N 5 7 30.19 1022 10 16 0.00 0.00
1:55 am 01:55 Clear 59 15 58 14.2 95 95 N 5 7 30.19 1022 10 16 0.00 0.00
2:15 am 02:15 Clear 58 14.7 57 14.1 96 96 N 6 9 30.19 1022 10 16 0.00 0.00
2:35 am 02:35 Clear 58 14.7 57 14 96 96 NNE 5 7 30.19 1022 10 16 0.00 0.00
2:55 am 02:55 Clear 59 14.9 57 14 94 94 N 6 9 30.19 1022 10 16 0.00 0.00
3:15 am 03:15 Clear 58 14.5 57 13.9 96 96 N 5 7 30.19 1022 10 16 0.00 0.00
3:35 am 03:35 Clear 58 14.6 57 14.1 97 97 Calm 30.18 1022 10 16 0.00 0.00
3:55 am 03:55 Clear 57 14 56 13.6 97 97 N 5 7 30.18 1022 10 16 0.00 0.00
4:15 am 04:15 Clear 57 13.9 57 13.7 99 99 Calm 30.18 1022 10 16 0.00 0.00
4:35 am 04:35 Clear 56 13.1 55 12.9 99 99 N 5 7 30.18 1022 10 16 0.00 0.00
4:55 am 04:55 Clear 57 13.8 56 13.2 96 96 N 5 7 30.19 1022 10 16 0.00 0.00
5:15 am 05:15 Clear 56 13.6 55 13 96 96 N 6 9 30.19 1022 10 16 0.00 0.00
5:35 am 05:35 Clear 56 13.1 55 12.8 98 98 N 5 7 30.19 1022 10 16 0.00 0.00
5:55 am 05:55 Clear 55 12.7 55 13 N/A Calm 30.19 1022 10 16 0.00 0.00
6:15 am 06:15 Clear 56 13.2 55 12.9 98 98 Calm 30.20 1023 10 16 0.00 0.00
6:35 am 06:35 Clear 54 12.3 N/A N/A Calm 30.20 1023 10 16 0.00 0.00
6:55 am 06:55 Sunny 55 12.7 N/A N/A Calm 30.20 1023 10 16 0.00 0.00
7:15 am 07:15 Sunny 55 12.5 N/A N/A Calm 30.20 1023 10 16 0.00 0.00
7:35 am 07:35 Sunny 55 13 N/A N/A Calm 30.20 1023 10 16 0.00 0.00
7:55 am 07:55 Sunny 58 14.2 57 14 99 99 Calm 30.20 1023 10 16 0.00 0.00
8:15 am 08:15 Sunny 59 15 57 13.7 92 92 Calm 30.20 1023 10 16 0.00 0.00
8:35 am 08:35 Sunny 61 15.9 57 13.9 88 88 Calm 30.20 1023 10 16 0.00 0.00
8:55 am 08:55 Sunny 62 16.9 58 14.3 85 85 Calm 30.19 1022 10 16 0.00 0.00
9:15 am 09:15 Sunny 64 17.7 58 14.3 80 80 N 3 6 30.19 1022 10 16 0.00 0.00
9:35 am 09:35 Sunny 66 19 58 14.6 76 76 Calm 30.19 1022 10 16 0.00 0.00
9:55 am 09:55 Sunny 68 20 57 14.1 69 69 Calm 30.19 1022 7 11 0.00 0.00
10:15 am 10:15 Sunny 69 20.6 57 13.8 65 65 Calm 30.19 1022 10 16 0.00 0.00
10:35 am 10:35 Sunny 71 21.6 58 14.3 63 63 NNW 5 7 30.18 1022 10 16 0.00 0.00
10:55 am 10:55 Sunny 73 22.6 58 14.5 60 60 N 3 6 30.17 1022 10 16 0.00 0.00
11:15 am 11:15 Sunny 74 23.6 56 13.4 53 53 NE 3 6 30.17 1022 10 16 0.00 0.00
11:35 am 11:35 Partly Cloudy 76 24.4 55 13 49 49 WNW 5 7 30.16 1021 10 16 0.00 0.00
11:55 am 11:55 Partly Cloudy 77 24.8 53 11.8 44 44 SE 5 7 30.16 1021 10 16 0.00 0.00
12:15 pm 12:15 Sunny 77 25 51 10.4 40 40 Calm 30.16 1021 10 16 0.00 0.00
12:35 pm 12:35 Sunny 78 25.7 53 11.9 42 42 N 8 13 30.15 1021 10 16 0.00 0.00
12:55 pm 12:55 Sunny 77 25 55 12.6 46 46 WSW 7 11 30.16 1021 10 16 0.00 0.00
1:15 pm 13:15 Sunny 77 25.1 53 11.6 43 43 SW 3 6 30.15 1021 10 16 0.00 0.00
1:35 pm 13:35 Sunny 78 25.6 53 11.8 42 42 SSW 3 6 30.13 1020 10 16 0.00 0.00
1:55 pm 13:55 Sunny 78 25.5 52 11.3 41 41 Calm 30.13 1020 10 16 0.00 0.00
2:15 pm 14:15 Sunny 78 25.8 54 12.1 43 43 Calm 30.11 1020 10 16 0.00 0.00
2:35 pm 14:35 Sunny 79 26 54 12.3 43 43 Calm 30.10 1019 10 16 0.00 0.00
2:55 pm 14:55 Sunny 79 26.3 52 10.9 38 38 SE 7 11 30.10 1019 10 16 0.00 0.00
3:15 pm 15:15 Sunny 80 26.8 54 12 40 40 ESE 6 9 30.09 1019 10 16 0.00 0.00
3:55 pm 15:55 Sunny 80 26.7 53 11.8 40 40 E 6 9 30.07 1018 10 16 0.00 0.00
4:15 pm 16:15 Sunny 81 27.4 52 11.2 36 36 SE 9 15 30.05 1018 10 16 0.00 0.00
4:35 pm 16:35 Sunny 80 26.7 54 12.2 41 41 SSE 6 9 30.06 1018 10 16 0.00 0.00
4:55 pm 16:55 Sunny 82 27.9 53 11.9 37 37 NE 5 7 30.05 1017 10 16 0.00 0.00
5:15 pm 17:15 Sunny 79 26.1 54 12.4 43 43 SE 6 9 30.04 1017 10 16 0.00 0.00
5:35 pm 17:35 Sunny 79 26 55 12.5 43 43 E 8 13 30.04 1017 10 16 0.00 0.00
5:55 pm 17:55 Sunny 78 25.6 55 12.7 45 45 E 7 11 30.03 1017 10 16 0.00 0.00
6:15 pm 18:15 Sunny 78 25.3 55 12.8 46 46 E 10 17 30.03 1017 10 16 0.00 0.00
6:35 pm 18:35 Partly Cloudy with Light Rain 75 23.8 58 14.3 55 55 E 7 11 30.05 1017 10 16 0.00 0.00
6:55 pm 18:55 Sunny 76 24.6 57 13.7 51 51 ESE 5 7 30.03 1017 10 16 0.00 0.00
7:15 pm 19:15 Sunny 76 24.6 57 13.8 51 51 Calm 30.03 1017 10 16 0.00 0.00
7:35 pm 19:35 Sunny 75 24 57 14.1 54 54 SSE 3 6 30.03 1017 10 16 0.00 0.00
7:55 pm 19:55 Sunny 75 24.1 55 12.8 49 49 ESE 3 6 30.03 1017 10 16 0.00 0.00
8:15 pm 20:15 Sunny 75 23.9 56 13.2 51 51 Calm 30.03 1017 10 16 0.00 0.00
8:35 pm 20:35 Sunny 74 23.4 56 13.2 53 53 Calm 30.04 1017 10 16 0.00 0.00
8:55 pm 20:55 Mostly Cloudy 72 22 63 17 73 73 Calm 30.04 1017 10 16 0.00 0.00
9:15 pm 21:15 Mostly Cloudy 71 21.8 63 17.4 76 76 Calm 30.04 1017 10 16 0.00 0.00
9:35 pm 21:35 Mostly Cloudy 70 21.2 63 17.2 78 78 Calm 30.05 1018 10 16 0.00 0.00
9:55 pm 21:55 Cloudy 69 20.5 65 18.6 89 89 Calm 30.06 1018 10 16 0.00 0.00
10:15 pm 22:15 Cloudy 69 20.5 66 18.9 91 91 Calm 30.05 1018 10 16 0.00 0.00
10:35 pm 22:35 Mostly Cloudy 68 20.1 66 18.8 92 92 Calm 30.06 1018 10 16 0.00 0.00
10:55 pm 22:55 Cloudy 68 20.2 66 18.7 91 91 Calm 30.06 1018 10 16 0.00 0.00
11:15 pm 23:15 Cloudy 68 19.8 66 18.9 95 95 N 3 6 30.06 1018 10 16 0.00 0.00
11:35 pm 23:35 Cloudy 68 20.1 65 18.6 91 91 Calm 30.06 1018 10 16 0.00 0.00
11:55 pm 23:55 Cloudy 67 19.6 66 19 96 96 NW 3 6 30.06 1018 10 16 0.00 0.00

Powered by AerisWeather